Погода в Островце-Свентокшиски

Польша     50°56′37″N   21°24′18″E
темп.,
°C
ветер,
м/с
пор.,
м/с
влажн.,
%
обл.,
%
осадки,
мм/ч
давл.,
гПа
погр.,
м
27 февраля, сб
сб2701:00+4зсз5128597 0.1 1027728
04:00+4зсз41086100 0.1 1026772
07:00+3сз61187100 0.1 1027704
10:00+4сз7128396 0.0 1028793
13:00+5сз7118098 0.0 1030892
16:00+5сз61073100 0.1 10301056
19:00+4сз5117598 0.1 1032815
22:00+1сз5118533 0.0 1033401
28 февраля, вс
вс2801:000сз5118817 0.0 1034362
04:000зсз499030 0.0 1033283
07:000зсз498465 0.0 1034356
10:00+4зсз596155 0.0 1032571
13:00+7зсз585828 0.0 1031860
16:00+4зсз6108133 0.0 1029729
19:00+3сз7118867 0.0 1030819
22:00+2сз5119375 0.0 1031441
1 марта, пн
пн101:00+2ссз489487 0.0 1033509
04:00+1сз3696100 0.0 1033267
07:00+2сз4695100 0.0 1034384
10:00+3сз3590100 0.0 1035403
13:00+7сз357399 0.0 1035672
16:00+8сз357265 0.0 1034651
19:00+4зсз238733 0.0 103534
22:00+3з33900 0.0 103574
2 марта, вт
вт201:00+2з36890 0.0 1035100
04:00+1з35890 0.0 103485
07:00+2з37900 0.0 1034141
10:00+7зсз46680 0.0 1034438
13:00+11зсз46560 0.0 1033688
16:00+10зсз36610 0.0 1031420
19:00+6з34780 0.0 103278
22:00+4зсз33790 0.0 103246
3 марта, ср
ср301:00+3з22830 0.0 103222
04:00+2з22840 0.0 103122
07:00+2зюз22830 0.0 103124
10:00+8зюз236251 0.0 1030275
13:00+12з245049 0.0 1028678
16:00+10зюз365910 0.0 1026665
19:00+6зюз33755 0.0 102644
22:00+5зюз34800 0.0 102552